FLOCK 2'-11

Last updated on Tue Aug 02 2016 17:39:13 GMT+0000 (Coordinated Universal Time)

1 41608U 16040K 16215.42504977 .00000837 00000-0 42450-4 0 9990 2 41608 97.5029 274.3387 0013586 107.9755 252.2962 15.19640205 6191
UTC large
Height (km)
Speed (km/s)
/
Latitude / Longitude
Inclination (degrees)
Orbital Period (minutes)
Azimuth
Elevation
Range (km)
Doppler Factor

Next 0 passes for location: London (51.5072 / 0.1276)

Sorry there are no passes over London.